Regional Weather Roundup
Issued by NWS

Home | Current Version | Previous Version | Graphics & Text | Print | Product List | Glossary On
Versions: 1 2 3 4 5 6 7 8 9 10 11 12 13 14 15 16 17 18 19 20 21 22 23 24 25 26 27 28 29 30 31 32 33 34 35 36 37 38 39 40 41 42 43 44 45 46 47 48 49 50
000
ASUS43 KMKX 180159
RWRWI

WISCONSIN REGIONAL WEATHER ROUNDUP
NATIONAL WEATHER SERVICE MILWAUKEE/SULLIVAN WI
800 PM CST WED JAN 17 2018

NOTE: "FAIR" INDICATES FEW OR NO CLOUDS BELOW 12,000 FEET WITH NO
SIGNIFICANT WEATHER AND/OR OBSTRUCTIONS TO VISIBILITY.

WIZ001-002-006>008-014>016-023>028-180300-
NORTHWEST WISCONSIN

CITY           SKY/WX    TMP DP  RH WIND       PRES   REMARKS
SUPERIOR ARPT  FAIR      24  11  57 SW14G20   29.91S WCI  12
ASHLAND        FAIR      25  10  53 SW16G28   29.90R WCI  12
HAYWARD        FAIR      20   8  60 SW8       29.94F WCI  10
SIREN          FAIR      24  13  63 SW14G22   29.98F WCI  12
CUMBERLAND     FAIR      19  10  68 SW10G16   30.00F WCI   8
RICE LAKE      FAIR      22  13  67 CALM      30.03F
CHETEK         FAIR      22  12  66 SW6       30.02F WCI  14
LADYSMITH      FAIR      19   9  65 SW7       30.00F WCI  10
EAU CLAIRE     NOT AVBL
MENOMONIE      FAIR      24  13  65 SW12      30.07S WCI  13
NEW RICHMOND   FAIR      21  12  69 SW9       30.04F WCI  10
OSCEOLA        FAIR      24  15  67 SW9       30.06F WCI  14
$$

WIZ003>005-009-010-017-018-180300-
NORTH CENTRAL WISCONSIN

CITY           SKY/WX    TMP DP  RH WIND       PRES   REMARKS
MANITOWISH WTR FAIR      19   6  58 SW9G17    29.88F WCI   8
ARBOR VITAE    FAIR      22  10  61 SW8       29.89F WCI  12
WOODRUFF       FAIR      22  10  61 SW8       29.89F WCI  12
RHINELANDER    FAIR      20  10  65 W16G24    29.90F WCI   6
EAGLE RIVER    FAIR      19   8  61 SW10      29.87F WCI   7
LAND O LAKES   FAIR      21   9  59 SW9       29.87F WCI  11
PHILLIPS       FAIR      19   8  63 SW12G17   29.94F WCI   6
TOMAHAWK       FAIR      20   9  61 SW6       29.96S WCI  12
MEDFORD        FAIR      19   8  62 SW10G18   29.99F WCI   8
MERRILL        FAIR      20   8  60 W10       29.99S WCI   9
$$

WIZ029-030-035-036-043>047-180300-
CENTRAL WISCONSIN

CITY           SKY/WX    TMP DP  RH WIND       PRES   REMARKS
WAUSAU         FAIR      20   8  60 SW10      29.99F WCI   9
MOSINEE        CLEAR     19  10  68 SW14      30.02S WCI   6
MARSHFIELD     FAIR      19   9  65 W15       30.02F WCI   5
STEVENS POINT  FAIR      19   7  58 SW14G20   30.04S WCI   6
WAUPACA        FAIR      24   8  50 SW14G20   30.06R WCI  11
WAUTOMA        FAIR      20   8  60 SW14      30.08F WCI   7
WISC RAPIDS    FAIR      19   6  57 SW10      30.07S WCI   7
CAMP DOUGLAS   NOT AVBL
$$

WIZ011>013-019>022-031-037>040-048>050-180300-
NORTHEAST WISCONSIN

CITY           SKY/WX    TMP DP  RH WIND       PRES   REMARKS
ANTIGO         FAIR      20   8  58 W20       29.95R WCI   4
SHAWANO        FAIR      25   8  50 SW17G24   29.97F WCI  11
OCONTO         FAIR      23   8  52 SW17G24   29.94F WCI   9
STURGEON BAY   FAIR      21   9  59 SW18G32   29.95F WCI   6
GREEN BAY      FAIR      21   7  54 SW15G23   30.00F WCI   8
MANITOWOC      FLURRIES  20   9  62 W21G30    30.02F WCI   4
APPLETON       CLEAR     19   5  53 SW21G26   30.02F WCI   3
CLINTONVILLE   FAIR      23   9  54 W17G25    30.02S WCI   9
OSHKOSH        FAIR      19   8  62 SW12G24   30.06F WCI   7
$$

WIZ032>034-041-042-053>061-180300-
SOUTHWEST WISCONSIN

CITY           SKY/WX    TMP DP  RH WIND       PRES   REMARKS
LA CROSSE      FAIR      21  11  65 SW12      30.17F WCI   9
SPARTA         FAIR      22  11  63 SW10      30.12F WCI  11
VIROQUA        FAIR      19  11  71 SW15      30.14F WCI   5
BOSCOBEL       FAIR      19   8  62 SW8       30.23F WCI   9
PRAIRIE DU CHI FAIR      21   8  56 SW8       30.24F WCI  12
PLATTEVILLE    FAIR      19  11  72 SW18      30.25F WCI   3
$$

WIZ056-057-062-063-064-067-068-180300-
SOUTH CENTRAL WISCONSIN

CITY           SKY/WX    TMP DP  RH WIND       PRES   REMARKS
REEDSBURG      FAIR      19   8  62 SW13      30.16F WCI   6
BARABOO/DELLS  FAIR      19   8  61 SW16G26   30.14F WCI   4
LONE ROCK      NOT AVBL
MINERAL POINT  FAIR      21  12  68 SW16G22   30.20F WCI   7
MADISON        FAIR      19   8  62 SW13G31   30.18F WCI   6
MIDDLETON      FAIR      20  10  65 SW14G25   30.18F WCI   7
WATERTOWN      FAIR      16  10  78 SW18G26   30.17F WCI   0
MONROE         FAIR      18  12  79 SW24G35   30.20F WCI   0
JANESVILLE     CLEAR     19  10  68 SW15G25   30.23F WCI   5
$$

WIZ051-052-058>065-066-070>072-180300-
SOUTHEAST WISCONSIN

CITY           SKY/WX    TMP DP  RH WIND       PRES   REMARKS
MILWAUKEE      FAIR      20  10  65 SW20G35   30.15F WCI   4
WAUKESHA       CLEAR     16   9  73 SW18G28   30.17F WCI  -1
MILWAUKEE/TIMM CLEAR     18   9  68 SW22G33   30.15F HAZE    WCI   0
RACINE         FAIR      18   9  68 SW17G30   30.20F WCI   3
BURLINGTON     FAIR      17   8  70 SW14G26   30.22F WCI   2
KENOSHA        FAIR      18   9  68 W20G35    30.21F WCI   2
FOND DU LAC    FAIR      19   7  59 SW21G31   30.08F WCI   3
SHEBOYGAN      FAIR      19  10  68 SW21G30   30.05F WCI   3
WEST BEND      FAIR      18  10  73 SW17G25   30.10F WCI   2
JUNEAU         FAIR      17   8  69 SW14      30.16F WCI   3
$$

LSZ147-162-180300-
LAKE SUPERIOR

STATION/POSITION TIME  TEMP    WIND        PRES    WAVE
                       AIR SEA DIR/SP/G            HT/PER
                 (UTC) (F)     (DEG/KT/KT) (MB)    (FT/S)
DEVILS ISLAND    0100   28     240/ 22/ 28 1011.9S
SAXON HARBOR     0140   27     210/  9/ 13 1012.2R
$$

LMZ867-665-643>646-180300-
LAKE MICHIGAN

STATION/POSITION TIME  TEMP    WIND        PRES    WAVE
                       AIR SEA DIR/SP/G            HT/PER
                 (UTC) (F)     (DEG/KT/KT) (MB)    (FT/S)
NORTHPORT PIER   0140   23     230/  7/ 23 1013.5R
KEWAUNEE LAKESHO 0124   21     230/ 11/ 20 1015.1
SHEBOYGAN LAKESH 0100   21     230/ 17/ 20 1020.3F
PORT WASHINGTON  0130   20     250/ 14/ 22 1021.0F
MILWAUKEE LAKESH 0130   20     240/ 22/ 27   N/A
KENOSHA   LAKESH 0100   19     240/ 19/ 26 1023.7
$$

TC  - TEMPERATURE IN CELSIUS
VSB - VISIBILITY IN STATUTE MILES
WCI - WIND CHILL INDEX
HX  - HEAT INDEX




USA.gov is the U.S. government's official web portal to all federal, state and local government web resources and services.